Santa Barbara, CA

12:29 PM PST on November 21, 2017 (GMT -0800)
Santa Barbara Municipal

Weather History for KSBA - October, 2010

Change the Weather History Date:

Thursday, October 28, 2010

  Actual Average Record
Temperature  
Mean Temperature 61 °F 60 °F  
Max Temperature 76 °F 71 °F 91 °F (2015)
Min Temperature 45 °F 49 °F 39 °F (1970)
Degree Days  
Heating Degree Days 4 5  
Month to date heating degree days 75 105  
Since 1 July heating degree days 355 200  
Cooling Degree Days 0 0  
Month to date cooling degree days 16 11  
Year to date cooling degree days 99 182  
Growing Degree Days 10 (Base 50)    
Moisture  
Dew Point 40 °F    
Average Humidity 47    
Maximum Humidity 71    
Minimum Humidity 23    
Precipitation  
Precipitation 0.00 in 0.04 in 0.68 in (1981)
Month to date precipitation 1.35 0.68  
Year to date precipitation 15.09 13.14  
Since 1 July precipitation 1.36  
Sea Level Pressure  
Sea Level Pressure 30.03 in    
Wind  
Wind Speed 3 mph (SSE)    
Max Wind Speed 15 mph    
Max Gust Speed 23 mph    
Visibility 10 miles    
Events      
T = Trace of Precipitation, MM = Missing Value Source: NWS Daily Summary

Daily Weather History Graph

Daily Weather History Graph

Search for Another Location

Airport or City:

Trip Planner

Search our weather history database for the weather conditions in past years. The results will help you decide how hot, cold, wet, or windy it might be!

Date:

Astronomy

Oct. 28, 2010 Rise Set
Actual Time 7:15 AM PDT 6:09 PM PDT
Civil Twilight 6:50 AM PDT 6:35 PM PDT
Nautical Twilight 6:20 AM PDT 7:05 PM PDT
Astronomical Twilight 5:51 AM PDT 7:34 PM PDT
Moon 10:52 PM PDT (10/28) 12:32 PM PDT (10/28)
Length of Visible Light 11h 45m
Length of Day
10h 53m
Waning Gibbous, 69% of the Moon is Illuminated
Oct 28
Waning Gibbous
Oct 30
Last Quarter
Nov 5
New
Nov 13
First Quarter
Nov 21
Full

Hourly Weather History & Observations

Time (PDT) Temp. Dew Point Humidity Pressure Visibility Wind Dir Wind Speed Gust Speed Precip Events Conditions
12:53 AM 48.9 °F 36.0 °F 61% 30.04 in 10.0 mi Calm Calm - N/A   Clear
1:53 AM 50.0 °F 37.9 °F 63% 30.03 in 10.0 mi Calm Calm - N/A   Clear
2:53 AM 48.0 °F 37.0 °F 66% 30.02 in 10.0 mi West 5.8 mph - N/A   Clear
3:53 AM 48.9 °F 37.0 °F 64% 30.01 in 10.0 mi Calm Calm - N/A   Clear
4:53 AM 48.0 °F 36.0 °F 63% 30.01 in 10.0 mi Calm Calm - N/A   Clear
5:53 AM 48.0 °F 37.0 °F 66% 30.02 in 10.0 mi Calm Calm - N/A   Clear
6:53 AM 48.9 °F 36.0 °F 61% 30.03 in 10.0 mi Calm Calm - N/A   Clear
7:53 AM 48.9 °F 36.0 °F 61% 30.03 in 10.0 mi Calm Calm - N/A   Clear
8:53 AM 57.2 °F 42.8 °F 59% 30.04 in 10.0 mi Calm Calm - N/A   Clear
9:53 AM 66.0 °F 39.9 °F 38% 30.06 in 10.0 mi Calm Calm - N/A   Clear
10:53 AM 73.0 °F 39.0 °F 29% 30.05 in 10.0 mi East 6.9 mph - N/A   Clear
11:53 AM 70.0 °F 48.0 °F 46% 30.05 in 10.0 mi SE 8.1 mph - N/A   Clear
12:53 PM 72.0 °F 46.9 °F 41% 30.04 in 10.0 mi SSE 10.4 mph - N/A   Clear
1:53 PM 73.0 °F 46.0 °F 38% 30.02 in 10.0 mi South 15.0 mph 19.6 mph N/A   Clear
2:53 PM 73.0 °F 36.0 °F 26% 30.02 in 10.0 mi SE 9.2 mph 19.6 mph N/A   Clear
3:53 PM 73.9 °F 33.1 °F 22% 30.01 in 10.0 mi ESE 6.9 mph - N/A   Clear
4:53 PM 73.9 °F 33.1 °F 22% 30.01 in 10.0 mi SE 4.6 mph - N/A   Clear
5:53 PM 64.9 °F 43.0 °F 45% 30.01 in 10.0 mi South 5.8 mph - N/A   Clear
6:53 PM 62.1 °F 48.0 °F 60% 30.02 in 10.0 mi WNW 4.6 mph - N/A   Clear
7:53 PM 61.0 °F 48.9 °F 64% 30.04 in 10.0 mi Calm Calm - N/A   Clear
8:53 PM 54.0 °F 44.1 °F 69% 30.04 in 10.0 mi West 4.6 mph - N/A   Clear
9:53 PM 54.0 °F 43.0 °F 66% 30.04 in 10.0 mi Calm Calm - N/A   Clear
10:53 PM 52.0 °F 41.0 °F 66% 30.04 in 10.0 mi Calm Calm - N/A   Clear
11:53 PM 50.0 °F 41.0 °F 71% 30.04 in 10.0 mi Calm Calm - N/A   Clear